| time (UTC) | temp F | wind direction | speed MPH | gust MPH | rain 1hr in | rain 24hr in | rain mn in | humidity % | barometer mb |
| 20260504024517 | 83 | 360 | 8.0 | 16.0 | 0.00 | 0.00 | 0.00 | 23 | 1008.9 |
| 20260504023016 | 84 | 360 | 11.0 | 24.0 | 0.00 | 0.00 | 0.00 | 22 | 1008.6 |
| 20260504021518 | 84 | 360 | 10.0 | 20.0 | 0.00 | 0.00 | 0.00 | 21 | 1008.3 |
| 20260504020015 | 85 | 360 | 10.0 | 25.0 | 0.00 | 0.00 | 0.00 | 19 | 1008.2 |
| 20260504014514 | 86 | 360 | 15.0 | 25.0 | 0.00 | 0.00 | 0.00 | 18 | 1008.0 |
| 20260504013018 | 88 | 360 | 9.0 | 18.0 | 0.00 | 0.00 | 0.00 | 17 | 1007.9 |
| 20260504011514 | 88 | 360 | 10.0 | 19.0 | 0.00 | 0.00 | 0.00 | 17 | 1007.9 |
| 20260504010013 | 89 | 360 | 11.0 | 21.0 | 0.00 | 0.00 | 0.00 | 17 | 1007.7 |
| 20260504004517 | 91 | 202 | 10.0 | 22.0 | 0.00 | 0.00 | 0.00 | 15 | 1007.7 |
| 20260504003012 | 92 | 201 | 10.0 | 15.0 | 0.00 | 0.00 | 0.00 | 14 | 1007.6 |
| 20260504001512 | 93 | 199 | 9.0 | 21.0 | 0.00 | 0.00 | 0.00 | 13 | 1007.7 |
| 20260504000011 | 93 | 141 | 11.0 | 18.0 | 0.00 | 0.00 | 0.00 | 13 | 1007.6 |
| 20260503234516 | 94 | 133 | 12.0 | 19.0 | 0.00 | 0.00 | 0.00 | 13 | 1007.6 |
| 20260503233010 | 94 | 221 | 7.0 | 17.0 | 0.00 | 0.00 | 0.00 | 13 | 1007.4 |
| 20260503231511 | 95 | 171 | 11.0 | 20.0 | 0.00 | 0.00 | 0.00 | 13 | 1007.5 |
| 20260503230008 | 95 | 209 | 8.0 | 16.0 | 0.00 | 0.00 | 0.00 | 13 | 1007.6 |
| 20260503224506 | 95 | 208 | 11.0 | 23.0 | 0.00 | 0.00 | 0.00 | 13 | 1007.7 |
| 20260503223005 | 95 | 200 | 7.0 | 21.0 | 0.00 | 0.00 | 0.00 | 14 | 1007.9 |
| 20260503221505 | 95 | 174 | 12.0 | 21.0 | 0.00 | 0.00 | 0.00 | 13 | 1008.1 |
| 20260503220002 | 96 | 159 | 6.0 | 16.0 | 0.00 | 0.00 | 0.00 | 13 | 1008.2 |
| 20260503214558 | 94 | 103 | 2.0 | 12.0 | 0.00 | 0.00 | 0.00 | 15 | 1008.5 |
| 20260503213102 | 94 | 76 | 6.0 | 15.0 | 0.00 | 0.00 | 0.00 | 15 | 1008.7 |
| 20260503211611 | 92 | 30 | 2.0 | 13.0 | 0.00 | 0.00 | 0.00 | 15 | 1009.1 |
| 20260503210052 | 94 | 101 | 5.0 | 13.0 | 0.00 | 0.00 | 0.00 | 15 | 1009.3 |
| 20260503204550 | 93 | 122 | 6.0 | 13.0 | 0.00 | 0.00 | 0.00 | 16 | 1009.7 |
| 20260503203049 | 92 | 198 | 3.0 | 13.0 | 0.00 | 0.00 | 0.00 | 16 | 1009.8 |
| 20260503201546 | 93 | 150 | 9.0 | 15.0 | 0.00 | 0.00 | 0.00 | 16 | 1010.2 |
| 20260503200055 | 92 | 117 | 9.0 | 14.0 | 0.00 | 0.00 | 0.00 | 17 | 1010.3 |
| 20260503194542 | 91 | 161 | 4.0 | 8.0 | 0.00 | 0.00 | 0.00 | 18 | 1010.7 |
| 20260503193042 | 90 | 360 | 6.0 | 9.0 | 0.00 | 0.00 | 0.00 | 19 | 1011.0 |
| 20260503191537 | 88 | 360 | 3.0 | 10.0 | 0.00 | 0.00 | 0.00 | 22 | 1011.2 |
| 20260503190034 | 89 | 360 | 6.0 | 9.0 | 0.00 | 0.00 | 0.00 | 22 | 1011.4 |
| 20260503184541 | 88 | 360 | 2.0 | 12.0 | 0.00 | 0.00 | 0.00 | 22 | 1011.5 |
| 20260503183032 | 88 | 360 | 7.0 | 13.0 | 0.00 | 0.00 | 0.00 | 21 | 1011.8 |
| 20260503181531 | 88 | 360 | 6.0 | 12.0 | 0.00 | 0.00 | 0.00 | 21 | 1011.8 |
| 20260503180043 | 87 | 360 | 8.0 | 13.0 | 0.00 | 0.00 | 0.00 | 21 | 1012.1 |
| 20260503174536 | 86 | 360 | 5.0 | 12.0 | 0.00 | 0.00 | 0.00 | 26 | 1012.3 |
| 20260503173029 | 85 | 360 | 5.0 | 10.0 | 0.00 | 0.00 | 0.00 | 26 | 1012.3 |
| 20260503171517 | 84 | 360 | 3.0 | 9.0 | 0.00 | 0.00 | 0.00 | 29 | 1012.4 |
| 20260503150106 | 73 | 360 | 1.0 | 3.0 | 0.00 | 0.00 | 0.00 | 41 | 1012.5 |
| 20260503081514 | 74 | 360 | 1.0 | 3.0 | 0.00 | 0.00 | 0.00 | 27 | 1011.8 |
| 20260503071604 | 72 | 360 | 0.0 | 3.0 | 0.00 | 0.00 | 0.00 | 31 | 1012.0 |
| 20260503070104 | 74 | 360 | 1.0 | 3.0 | 0.00 | 0.00 | 0.00 | 30 | 1011.9 |
| 20260503054545 | 76 | 360 | 0.0 | 2.0 | 0.00 | 0.00 | 0.00 | 24 | 1011.7 |
| 20260503053044 | 77 | 360 | 0.0 | 2.0 | 0.00 | 0.00 | 0.00 | 27 | 1011.5 |
| 20260503051544 | 79 | 360 | 0.0 | 2.0 | 0.00 | 0.00 | 0.00 | 22 | 1011.5 |
| 20260503050042 | 79 | 360 | 0.0 | 2.0 | 0.00 | 0.00 | 0.00 | 23 | 1011.4 |
| 20260503044544 | 79 | 360 | 0.0 | 0.0 | 0.00 | 0.00 | 0.00 | 22 | 1011.4 |
| 20260503043041 | 81 | 360 | 0.0 | 0.0 | 0.00 | 0.00 | 0.00 | 19 | 1011.2 |
| 20260503041540 | 81 | 360 | 0.0 | 2.0 | 0.00 | 0.00 | 0.00 | 19 | 1011.0 |
| 20260503040040 | 82 | 360 | 1.0 | 3.0 | 0.00 | 0.00 | 0.00 | 18 | 1010.7 |
| 20260503034539 | 83 | 360 | 2.0 | 5.0 | 0.00 | 0.00 | 0.00 | 18 | 1010.5 |
| 20260503033041 | 84 | 360 | 1.0 | 3.0 | 0.00 | 0.00 | 0.00 | 18 | 1010.3 |
| 20260503031541 | 84 | 360 | 1.0 | 3.0 | 0.00 | 0.00 | 0.00 | 18 | 1010.2 |
| 20260503030056 | 85 | 360 | 2.0 | 4.0 | 0.00 | 0.00 | 0.00 | 17 | 1010.1 |